When you browse on this site, cookies collect data to enhance your experience and personalize the content and advertising you see.
Visit our Privacy Policy to learn more. By continuing to use the site, you agree to this use of cookies and data.
EN

Hourly Weather Baramati

Today, 11 August, Tuesday

Time Temperature Precipitation Wind Pressure Humidity
00:00 +25°C° 0.8 mm 3 mps 708 mmHg 91%
01:00 +25°C° 0.8 mm 3 mps 708 mmHg 91%
02:00 +25°C° 0.8 mm 3 mps 708 mmHg 91%
03:00 +25°C° 0 mm 2 mps 708 mmHg 91%
04:00 +25°C° 0 mm 2 mps 708 mmHg 91%
05:00 +25°C° 0 mm 2 mps 708 mmHg 90%
06:00 +25°C° 0 mm 2 mps 708 mmHg 89%
07:00 +25°C° 0 mm 1 mps 709 mmHg 88%
08:00 +25°C° 0 mm 1 mps 709 mmHg 87%
09:00 +26°C° 0.1 mm 2 mps 709 mmHg 85%
10:00 +26°C° 0.1 mm 3 mps 710 mmHg 83%
11:00 +27°C° 0.1 mm 4 mps 710 mmHg 80%
12:00 +27°C° 0 mm 5 mps 709 mmHg 77%
13:00 +28°C° 0 mm 6 mps 709 mmHg 73%
14:00 +29°C° 0 mm 6 mps 708 mmHg 69%
15:00 +29°C° 0.1 mm 6 mps 708 mmHg 71%
16:00 +28°C° 0.1 mm 6 mps 708 mmHg 72%
17:00 +28°C° 0.1 mm 6 mps 708 mmHg 73%
18:00 +27°C° 0 mm 6 mps 709 mmHg 76%
19:00 +26°C° 0 mm 5 mps 709 mmHg 79%
20:00 +26°C° 0 mm 4 mps 709 mmHg 82%
21:00 +25°C° 0 mm 4 mps 710 mmHg 83%
22:00 +25°C° 0 mm 3 mps 710 mmHg 85%
23:00 +25°C° 0 mm 3 mps 710 mmHg 87%

Tomorrow, 12 August, Wednesday

Time Temperature Precipitation Wind Pressure Humidity
00:00 +25°C° 0 mm 3 mps 709 mmHg 86%
01:00 +25°C° 0 mm 3 mps 709 mmHg 86%
02:00 +25°C° 0 mm 3 mps 709 mmHg 86%
03:00 +25°C° 0 mm 4 mps 709 mmHg 86%
04:00 +25°C° 0 mm 4 mps 709 mmHg 85%
05:00 +25°C° 0 mm 4 mps 708 mmHg 85%
06:00 +26°C° 0 mm 4 mps 709 mmHg 83%
07:00 +26°C° 0 mm 5 mps 710 mmHg 80%
08:00 +27°C° 0 mm 6 mps 710 mmHg 77%
09:00 +27°C° 0 mm 6 mps 710 mmHg 76%
10:00 +28°C° 0 mm 6 mps 710 mmHg 74%
11:00 +28°C° 0 mm 6 mps 711 mmHg 72%
12:00 +28°C° 0 mm 7 mps 710 mmHg 71%
13:00 +29°C° 0 mm 7 mps 710 mmHg 70%
14:00 +29°C° 0 mm 8 mps 709 mmHg 68%
15:00 +28°C° 0 mm 8 mps 709 mmHg 70%
16:00 +28°C° 0 mm 7 mps 709 mmHg 71%
17:00 +27°C° 0 mm 7 mps 709 mmHg 73%
18:00 +27°C° 0 mm 6 mps 709 mmHg 75%
19:00 +26°C° 0 mm 5 mps 710 mmHg 78%
20:00 +26°C° 0 mm 4 mps 710 mmHg 81%
21:00 +26°C° 0 mm 4 mps 711 mmHg 81%
22:00 +26°C° 0 mm 3 mps 711 mmHg 82%
23:00 +25°C° 0 mm 2 mps 711 mmHg 83%

Day after tomorrow, 13 August, Thursday

Time Temperature Precipitation Wind Pressure Humidity
00:00 +25°C° 0 mm 3 mps 710 mmHg 83%
01:00 +25°C° 0 mm 3 mps 709 mmHg 84%
02:00 +25°C° 0 mm 4 mps 709 mmHg 84%
03:00 +25°C° 0 mm 3 mps 708 mmHg 85%
04:00 +25°C° 0 mm 3 mps 708 mmHg 86%
05:00 +25°C° 0 mm 2 mps 708 mmHg 86%
06:00 +25°C° 0.1 mm 2 mps 708 mmHg 85%
07:00 +25°C° 0.1 mm 3 mps 709 mmHg 84%
08:00 +26°C° 0.1 mm 3 mps 709 mmHg 82%
09:00 +26°C° 0.1 mm 3 mps 709 mmHg 80%
10:00 +27°C° 0.1 mm 4 mps 710 mmHg 77%
11:00 +27°C° 0.1 mm 5 mps 710 mmHg 74%
12:00 +27°C° 0.1 mm 5 mps 709 mmHg 75%
13:00 +27°C° 0.1 mm 5 mps 709 mmHg 76%
14:00 +27°C° 0.1 mm 5 mps 708 mmHg 77%
15:00 +26°C° 0.7 mm 5 mps 708 mmHg 81%
16:00 +25°C° 0.7 mm 4 mps 708 mmHg 84%
17:00 +25°C° 0.7 mm 4 mps 707 mmHg 87%
18:00 +25°C° 0.4 mm 4 mps 708 mmHg 88%
19:00 +23°C° 0.4 mm 4 mps 708 mmHg 88%
20:00 +23°C° 0.4 mm 4 mps 709 mmHg 88%
21:00 +24°C° 0.2 mm 3 mps 709 mmHg 89%
22:00 +24°C° 0.2 mm 3 mps 709 mmHg 89%
23:00 +24°C° 0.2 mm 3 mps 709 mmHg 89%

14 August, Friday

Time Temperature Precipitation Wind Pressure Humidity
00:00 +24°C° 0.1 mm 3 mps 708 mmHg 89%
01:00 +24°C° 0.1 mm 3 mps 708 mmHg 89%
02:00 +24°C° 0.1 mm 3 mps 707 mmHg 89%
03:00 +24°C° 0.1 mm 3 mps 707 mmHg 89%
04:00 +24°C° 0.1 mm 3 mps 707 mmHg 89%
05:00 +24°C° 0.1 mm 3 mps 707 mmHg 89%
06:00 +23°C° 0.2 mm 4 mps 707 mmHg 88%
07:00 +25°C° 0.2 mm 4 mps 708 mmHg 87%
08:00 +25°C° 0.2 mm 5 mps 708 mmHg 86%
09:00 +24°C° 0 mm 6 mps 708 mmHg 83%
10:00 +26°C° 0 mm 6 mps 708 mmHg 80%
11:00 +26°C° 0 mm 7 mps 709 mmHg 77%
12:00 +26°C° 0.2 mm 7 mps 708 mmHg 78%
13:00 +26°C° 0.2 mm 7 mps 708 mmHg 80%
14:00 +24°C° 0.2 mm 7 mps 707 mmHg 81%
15:00 +24°C° 0 mm 6 mps 707 mmHg 81%
16:00 +24°C° 0 mm 6 mps 707 mmHg 81%
17:00 +25°C° 0 mm 5 mps 707 mmHg 81%
18:00 +25°C° 0.1 mm 5 mps 707 mmHg 83%
19:00 +25°C° 0.1 mm 4 mps 707 mmHg 84%
20:00 +23°C° 0.1 mm 4 mps 708 mmHg 85%
21:00 +23°C° 0.1 mm 4 mps 708 mmHg 85%
22:00 +24°C° 0.1 mm 3 mps 708 mmHg 86%
23:00 +24°C° 0.1 mm 3 mps 708 mmHg 87%

15 August, Saturday

Time Temperature Precipitation Wind Pressure Humidity
00:00 +24°C° 0 mm 3 mps 708 mmHg 86%
01:00 +23°C° 0 mm 4 mps 707 mmHg 86%
02:00 +23°C° 0 mm 5 mps 706 mmHg 85%
03:00 +23°C° 0 mm 5 mps 706 mmHg 85%
04:00 +23°C° 0 mm 4 mps 706 mmHg 86%
05:00 +23°C° 0 mm 4 mps 706 mmHg 86%
06:00 +25°C° 0 mm 4 mps 707 mmHg 85%
07:00 +25°C° 0 mm 4 mps 707 mmHg 84%
08:00 +25°C° 0 mm 5 mps 708 mmHg 83%
09:00 +26°C° 0.1 mm 5 mps 708 mmHg 80%
10:00 +27°C° 0.1 mm 6 mps 708 mmHg 77%
11:00 +27°C° 0.1 mm 7 mps 708 mmHg 74%
12:00 +28°C° 0.2 mm 8 mps 708 mmHg 72%
13:00 +28°C° 0.2 mm 8 mps 707 mmHg 70%
14:00 +29°C° 0.2 mm 9 mps 707 mmHg 69%
15:00 +28°C° 0.1 mm 9 mps 707 mmHg 71%
16:00 +27°C° 0.1 mm 8 mps 707 mmHg 74%
17:00 +27°C° 0.1 mm 7 mps 707 mmHg 77%
18:00 +26°C° 0 mm 7 mps 707 mmHg 78%
19:00 +26°C° 0 mm 6 mps 707 mmHg 80%
20:00 +26°C° 0 mm 5 mps 708 mmHg 82%
21:00 +26°C° 0 mm 5 mps 708 mmHg 82%
22:00 +25°C° 0 mm 5 mps 708 mmHg 83%
23:00 +25°C° 0 mm 5 mps 709 mmHg 83%

16 August, Sunday

Time Temperature Precipitation Wind Pressure Humidity
00:00 +25°C° 0.1 mm 5 mps 708 mmHg 84%
01:00 +25°C° 0.1 mm 5 mps 708 mmHg 85%
02:00 +25°C° 0.1 mm 4 mps 707 mmHg 87%
03:00 +25°C° 0.1 mm 4 mps 707 mmHg 87%
04:00 +25°C° 0.1 mm 4 mps 707 mmHg 87%
05:00 +25°C° 0.1 mm 4 mps 707 mmHg 87%
06:00 +25°C° 0 mm 4 mps 708 mmHg 86%
07:00 +26°C° 0 mm 4 mps 708 mmHg 84%
08:00 +26°C° 0 mm 4 mps 709 mmHg 83%
09:00 +26°C° 0 mm 5 mps 709 mmHg 80%
10:00 +27°C° 0 mm 5 mps 709 mmHg 78%
11:00 +27°C° 0 mm 6 mps 709 mmHg 75%
12:00 +28°C° 0.1 mm 6 mps 709 mmHg 72%
13:00 +29°C° 0.1 mm 7 mps 708 mmHg 69%
14:00 +31°C° 0.1 mm 8 mps 708 mmHg 65%
15:00 +31°C° 0.1 mm 8 mps 708 mmHg 67%
16:00 +29°C° 0.1 mm 8 mps 708 mmHg 68%
17:00 +29°C° 0.1 mm 7 mps 707 mmHg 70%
18:00 +28°C° 0 mm 6 mps 708 mmHg 73%
19:00 +27°C° 0 mm 6 mps 708 mmHg 76%
20:00 +26°C° 0 mm 5 mps 709 mmHg 80%
21:00 +26°C° 0 mm 5 mps 709 mmHg 81%
22:00 +26°C° 0 mm 4 mps 709 mmHg 81%
23:00 +26°C° 0 mm 4 mps 709 mmHg 82%
Show more